GFSSW_250_rhum_132.txt.gz
RH
90 99 100 100 100 100 90 98 97 94 95 88 79 67 51 48 29 25 27 30 32 33 33 33 31 29 28 29 32 35 55 56 71 72 75 77 66 51 43 32 29 24 22 24 31
100 97 100 100 99 96 97 87 100 89 73 69 63 51 42 39 28 27 31 34 36 38 39 42 39 37 35 34 36 40 47 53 65 77 72 60 51 44 39 35 32 28 24 27 35
100 96 100 100 100 100 90 80 88 100 90 69 62 48 44 36 36 34 36 37 38 43 42 47 44 44 48 49 45 47 59 63 70 66 52 47 37 35 35 28 30 43 42 23 28
74 100 100 93 100 93 57 70 84 92 94 81 62 60 49 45 40 42 41 46 51 55 56 69 50 54 60 61 63 66 71 72 68 59 40 32 33 31 28 37 41 46 70 64 43
66 85 99 74 94 77 33 62 81 80 94 92 80 59 50 54 55 57 59 64 64 64 61 47 53 60 66 68 77 83 74 52 47 46 44 33 33 42 60 69 80 87 86 89 74
71 65 77 72 51 73 39 31 64 74 98 100 96 70 47 42 47 48 67 64 68 74 45 59 60 60 64 78 84 92 87 70 46 41 36 43 65 83 100 100 100 100 100 99 87
56 71 98 67 39 70 73 31 53 78 100 84 78 53 48 53 54 47 93 70 63 51 58 62 52 47 50 73 79 66 53 51 54 53 56 99 100 100 100 91 84 69 52 50 49
80 90 92 67 67 86 98 61 44 91 100 100 97 86 76 76 64 86 93 100 80 70 66 72 74 72 72 61 59 59 46 58 96 99 98 91 87 80 68 52 41 36 32 28 26
75 92 100 76 78 69 73 69 41 84 100 98 88 71 76 65 65 68 73 80 100 98 80 83 84 85 75 77 54 86 100 100 100 100 88 84 72 43 39 32 29 29 29 30 26
98 100 85 100 100 91 87 73 72 98 99 99 87 74 73 58 63 68 70 78 74 54 46 59 58 72 69 70 95 100 100 100 100 94 67 39 34 30 28 24 25 26 25 23 23
100 100 100 100 95 100 100 100 100 100 100 100 83 59 42 40 40 53 66 75 73 58 52 41 43 61 82 100 100 100 100 100 84 63 45 30 27 23 25 26 24 21 18 18 14
76 85 87 100 100 100 100 91 90 84 100 100 72 45 46 44 45 49 53 69 61 51 45 50 63 91 100 100 100 99 82 54 37 37 28 23 18 22 24 21 15 12 11 12 13
44 56 62 75 82 88 88 84 74 70 64 67 64 49 45 50 57 52 50 52 56 48 53 75 97 100 96 90 59 40 36 29 33 29 39 29 19 18 22 16 8 8 6 6 8
64 48 64 77 77 77 84 78 75 81 73 70 63 52 51 55 62 56 54 50 54 51 69 96 95 90 84 63 42 35 38 42 35 29 28 48 22 19 15 10 10 10 6 4 6
96 79 60 90 93 100 91 91 86 100 88 76 72 68 67 68 75 65 66 53 51 52 56 64 64 58 48 43 53 65 50 38 36 43 28 30 26 13 7 8 8 7 6 5 5
100 100 87 100 100 97 100 96 92 88 92 89 78 80 75 80 78 69 76 60 59 62 63 63 62 55 58 68 75 57 52 54 54 34 26 33 26 14 8 8 7 5 4 4 4
100 100 100 100 100 87 100 100 93 84 89 100 100 96 89 96 90 86 91 82 89 87 77 74 79 90 86 78 65 69 50 41 37 30 26 35 22 12 9 8 5 3 3 4 4
100 100 100 100 100 100 100 100 100 100 99 88 97 100 95 100 99 100 100 96 99 100 100 100 100 96 74 64 77 60 48 40 28 25 16 43 17 10 10 6 4 4 4 4 5
100 100 100 100 100 100 100 100 89 94 88 84 88 82 91 100 100 100 100 100 100 100 100 100 100 98 79 68 68 58 48 42 39 31 22 28 17 15 7 4 4 5 6 6 7
100 100 100 100 100 100 100 100 100 97 90 90 95 92 100 100 100 100 100 100 100 100 100 100 100 98 69 86 71 52 54 62 51 28 18 31 17 10 6 5 8 8 7 7 10
100 100 100 100 100 100 100 100 100 100 100 80 99 100 100 100 100 100 100 100 100 100 100 100 100 100 73 59 68 66 65 56 42 27 18 19 17 7 6 7 12 11 12 13 19
99 100 100 100 100 100 100 100 100 95 96 85 96 99 100 100 100 100 100 96 100 100 100 100 96 89 90 87 89 74 68 55 35 32 22 22 11 7 7 19 37 29 31 39 62
70 100 100 100 100 100 100 100 100 100 99 96 100 100 100 100 100 100 100 100 100 100 100 100 100 100 100 81 84 82 61 53 38 26 23 18 9 8 8 23 54 34 40 70 100
73 100 100 100 100 100 100 100 100 92 89 100 100 100 100 100 100 100 100 100 100 100 100 100 100 100 98 75 78 86 66 45 42 23 26 12 9 9 9 22 98 73 62 100 100
87 95 100 100 100 100 100 100 100 98 97 95 99 100 100 100 100 100 100 100 100 100 99 100 87 96 88 78 73 73 70 54 35 22 19 12 10 11 11 36 100 99 100 100 100
100 92 100 100 100 100 100 100 100 100 100 100 84 100 100 100 100 100 100 100 100 100 100 100 94 88 90 83 88 74 56 45 28 25 14 13 11 12 12 48 100 100 100 100 100
100 100 100 100 100 100 100 100 100 100 93 100 100 100 100 100 98 96 98 100 100 100 100 93 93 85 85 76 74 53 41 28 36 21 14 13 11 12 14 36 88 100 100 100 100

GFSSW_250_rhum_135.txt.gz
RH
92 97 100 100 78 74 90 100 94 86 81 99 100 100 82 90 92 91 62 79 44 32 34 35 35 32 33 32 35 34 34 34 33 36 41 43 47 45 46 53 62 59 48 41 36
100 100 100 95 83 71 71 100 100 100 84 99 98 100 89 84 81 79 64 57 57 34 34 36 37 37 41 44 48 51 51 42 45 44 43 48 50 56 62 65 66 54 39 36 30
95 100 96 73 64 51 35 86 100 94 80 89 99 100 90 100 90 66 62 45 36 40 33 33 34 36 45 49 55 56 46 42 43 42 41 47 71 77 80 81 71 60 45 38 32
67 85 91 78 55 46 29 41 80 62 78 77 56 92 82 100 96 70 64 53 45 34 36 37 40 44 50 54 63 68 58 51 46 46 53 66 77 88 80 54 48 44 46 35 29
75 71 72 58 50 45 32 22 72 54 80 66 35 42 70 96 100 94 76 66 53 45 46 48 60 75 81 72 64 45 44 39 42 41 42 54 74 64 65 56 47 39 43 48 61
79 73 64 52 48 43 30 31 57 66 54 62 52 40 49 90 97 94 79 65 55 40 41 46 55 98 81 64 67 63 50 47 45 44 49 59 60 58 49 52 58 56 74 96 100
77 95 64 71 58 39 46 47 45 44 49 39 28 26 36 93 96 89 77 63 62 54 56 55 79 100 100 94 83 81 85 87 78 87 82 66 54 62 58 54 53 95 98 82 76
100 100 100 54 87 72 77 60 42 62 79 46 70 32 50 72 100 99 80 76 72 57 47 46 60 75 84 100 100 90 82 90 97 87 77 67 68 72 68 75 78 76 91 96 79
100 100 100 80 100 100 68 81 100 100 74 51 66 54 40 65 91 100 98 86 76 52 41 37 50 60 62 68 72 59 50 56 67 71 72 64 99 100 87 83 97 100 95 80 46
100 100 100 100 78 90 100 97 100 100 100 88 70 64 46 48 77 100 100 99 74 56 39 40 39 48 72 83 68 50 48 46 43 58 83 100 100 100 98 86 88 83 69 49 32
87 86 84 97 100 95 100 100 100 100 100 100 78 75 92 75 97 95 100 100 88 65 39 38 43 42 44 55 56 47 41 54 87 97 90 100 100 100 95 69 48 32 28 24 22
60 48 57 75 80 91 96 100 100 87 90 100 85 61 81 88 95 86 87 82 78 66 50 42 45 50 47 50 50 41 49 84 88 98 96 94 91 58 36 31 26 21 19 21 19
52 49 47 58 58 64 74 77 94 94 81 93 96 96 96 98 80 69 68 67 68 61 53 50 44 45 46 50 49 50 81 100 88 82 79 66 52 37 33 25 19 23 31 18 8
45 54 44 48 51 50 50 67 66 64 71 60 65 72 80 84 82 74 63 58 56 54 53 50 48 47 45 50 54 51 54 61 60 54 46 39 27 29 28 25 31 30 19 12 9
55 56 100 85 86 67 78 92 94 79 74 66 50 64 81 86 87 81 76 60 62 61 54 51 56 53 44 47 46 54 51 48 44 43 46 43 38 25 26 22 23 18 10 8 7
100 100 100 100 100 100 100 100 100 95 84 83 89 88 100 98 89 92 98 74 65 70 79 74 58 51 47 46 47 50 46 48 54 56 69 56 36 28 21 15 12 10 8 8 7
100 100 100 100 100 100 100 100 99 96 91 93 100 100 94 100 100 98 94 85 77 84 78 80 74 64 58 58 50 52 63 59 66 82 78 54 42 29 24 19 12 10 9 6 4
89 100 100 100 100 100 100 100 87 100 88 84 100 100 98 97 97 95 95 89 91 94 82 95 89 85 70 71 76 71 74 88 71 68 61 60 40 30 29 20 15 11 7 5 4
83 100 100 100 100 100 100 100 100 100 100 100 100 97 98 98 97 91 92 81 81 88 86 100 98 95 100 100 97 98 83 80 67 64 58 47 44 38 40 21 16 10 7 6 5
57 94 98 100 100 100 100 100 100 100 100 100 100 100 100 100 100 97 91 72 77 74 91 93 98 95 88 86 83 96 87 72 74 70 42 43 42 31 34 22 16 9 9 7 6
36 73 74 90 100 100 100 100 100 100 100 100 100 100 100 100 85 78 60 63 64 89 88 98 98 92 73 82 86 90 76 88 74 60 45 27 39 32 25 23 13 10 9 8 9
21 33 28 44 81 100 100 100 100 100 100 100 100 100 100 97 65 68 67 85 97 100 100 100 100 97 91 80 82 90 84 83 78 58 49 27 44 25 27 18 14 18 18 10 14
11 9 15 25 52 94 100 100 100 100 100 100 100 100 100 100 100 86 100 98 98 94 90 100 100 100 100 98 96 96 84 78 65 58 51 30 41 24 26 16 23 40 25 25 30
6 8 9 16 31 98 100 100 100 100 100 100 100 100 100 100 100 99 100 99 98 100 98 94 93 95 92 90 99 99 89 76 62 61 50 32 33 26 20 16 34 55 54 40 41
9 10 14 15 40 88 100 100 100 100 100 100 100 100 100 100 100 100 100 92 100 100 99 92 100 99 100 99 96 100 92 76 60 59 50 34 28 30 16 19 57 76 82 56 74
14 19 28 37 80 100 100 100 100 100 100 100 100 100 100 97 91 80 88 91 82 98 100 100 100 100 97 92 84 99 91 80 84 61 48 32 30 27 14 19 74 93 90 77 88
25 50 68 100 100 100 100 100 100 100 100 100 100 100 93 95 88 100 90 84 100 97 91 99 100 92 88 93 85 94 89 82 68 53 38 32 36 22 16 23 67 99 96 94 76

GFSSW_250_rhum_138.txt.gz
RH
100 94 68 74 72 94 89 94 97 62 61 62 96 85 98 79 100 100 71 90 95 99 100 100 54 41 36 31 34 32 35 35 37 43 49 48 50 47 46 45 40 40 40 49 51
69 98 80 70 67 86 94 99 94 69 61 64 79 100 97 87 88 100 81 88 99 97 100 96 77 48 40 35 38 39 39 43 51 61 65 56 60 58 56 54 47 49 46 44 48
69 97 91 50 56 78 96 93 84 81 63 49 46 92 92 86 81 95 85 92 95 80 92 94 84 67 61 47 56 62 58 50 54 51 57 70 69 59 47 40 45 53 57 50 62
54 57 55 67 70 72 69 85 74 82 70 47 38 65 91 73 68 66 53 85 100 87 78 61 55 65 54 57 49 47 54 63 74 65 70 82 57 59 54 55 60 53 59 60 60
84 70 72 80 63 83 64 58 65 60 62 44 30 44 65 68 83 62 45 54 97 100 91 97 97 92 73 54 56 60 53 86 100 94 88 95 84 94 83 84 76 73 72 69 62
100 99 98 100 92 84 78 90 86 78 60 45 24 25 34 64 72 66 74 54 100 100 100 82 77 64 51 42 48 41 40 66 97 100 97 83 78 87 96 99 88 78 90 84 64
98 98 96 82 74 73 81 98 100 91 60 51 32 21 53 56 75 61 52 36 95 100 99 72 68 64 59 54 43 42 38 52 78 98 100 100 89 78 77 84 87 82 88 73 60
70 76 85 82 89 80 100 100 100 100 91 65 36 31 40 49 60 55 52 66 88 100 81 80 82 68 77 66 46 44 34 49 63 69 70 71 65 58 52 53 67 71 76 71 76
53 53 52 82 99 98 100 100 100 100 100 68 50 39 50 90 67 63 49 77 94 100 100 100 100 100 93 70 63 46 34 36 45 54 64 67 56 50 47 49 58 59 73 96 100
77 64 70 48 70 80 78 94 94 100 100 100 97 66 96 100 99 72 50 61 50 56 82 93 100 100 100 96 78 48 39 37 36 42 54 59 54 45 48 72 86 89 97 100 99
100 100 98 88 49 80 65 61 68 95 99 100 100 75 99 100 100 94 73 58 54 37 66 76 95 100 100 97 86 73 53 41 35 38 45 49 53 64 88 89 81 75 68 66 66
100 100 100 100 93 57 72 62 46 65 81 93 100 100 72 97 100 100 90 89 80 43 64 81 90 82 78 68 63 60 50 42 43 41 42 47 52 59 68 65 64 68 61 51 48
94 86 100 100 100 98 64 71 49 43 53 73 87 100 95 95 97 78 59 99 75 72 72 93 93 73 62 60 50 43 44 43 42 42 39 42 49 58 71 60 59 55 44 34 28
100 100 100 100 100 100 100 82 64 65 42 44 56 76 77 92 93 100 91 88 84 80 78 77 81 74 67 56 48 43 42 43 52 50 42 44 47 49 44 40 36 30 29 27 28
100 100 97 100 100 100 100 100 100 46 40 39 44 60 58 65 75 82 88 77 77 63 57 59 57 56 54 55 52 45 51 53 44 48 43 44 42 41 32 33 32 30 30 36 40
100 100 100 100 100 100 100 100 100 100 84 50 48 74 94 69 73 68 88 82 80 76 60 72 71 61 64 68 64 56 62 64 54 61 56 53 49 47 36 32 29 32 32 34 23
97 100 100 100 100 100 100 100 100 100 100 74 65 100 90 100 98 87 94 93 88 88 81 78 74 75 78 73 62 63 62 61 62 72 69 65 63 53 36 30 24 23 26 20 12
65 69 98 97 100 100 100 100 100 100 100 100 83 97 100 94 98 100 100 100 95 100 100 86 75 76 69 57 57 61 60 75 75 76 79 81 74 55 39 28 27 28 27 12 12
33 44 62 67 90 100 100 100 88 100 100 100 97 100 100 89 94 86 78 80 83 90 89 86 66 57 55 64 57 53 76 77 76 79 76 70 64 53 41 36 32 36 22 17 11
16 24 34 58 75 98 100 100 100 100 100 100 100 100 100 100 100 86 84 96 96 90 96 91 73 67 66 58 54 64 77 76 96 100 87 75 52 51 38 43 41 34 20 17 9
11 12 15 24 41 79 95 100 96 100 100 100 100 100 100 100 100 99 95 94 91 98 100 93 70 72 74 55 58 81 97 94 83 81 81 78 60 47 37 32 37 23 21 15 14
11 11 10 13 21 38 59 67 100 98 100 100 100 100 100 100 100 100 100 100 100 97 100 86 67 67 56 70 84 83 84 78 78 85 87 72 61 45 28 33 34 29 21 19 30
15 18 14 12 11 17 39 66 100 100 96 100 100 100 100 100 100 100 100 100 100 99 85 84 82 66 68 96 94 85 81 84 75 88 76 69 62 38 27 30 32 30 30 46 51
12 11 7 6 7 11 22 56 93 100 100 97 100 100 100 100 100 100 100 100 100 100 100 97 81 70 76 98 91 96 96 88 81 74 74 69 60 44 33 34 37 32 42 64 75
9 5 6 8 9 16 26 38 53 68 99 100 100 100 100 100 100 100 100 100 85 99 78 94 91 76 88 79 87 99 86 87 78 79 76 64 46 39 35 37 40 31 52 95 92
8 9 11 11 11 12 18 36 56 62 100 100 100 100 100 100 100 100 100 100 100 100 100 100 100 96 70 72 83 81 76 75 77 75 68 50 49 47 39 37 37 26 61 100 97
17 23 26 24 23 20 18 23 43 97 100 100 100 100 100 100 100 100 100 100 100 100 97 99 100 78 73 82 92 94 89 72 74 84 71 52 53 47 40 37 34 21 66 100 98

GFSSW_250_rhum_144.txt.gz
RH
97 100 100 98 79 45 54 99 100 94 58 69 92 80 94 61 38 53 87 100 94 85 77 89 91 97 87 70 67 84 100 85 45 29 36 35 47 40 45 52 49 44 48 55 58
77 100 100 99 80 45 28 49 70 59 63 26 30 34 41 48 50 44 91 98 88 90 75 66 59 63 73 74 81 70 92 100 69 73 80 38 51 46 80 79 77 67 84 80 82
100 100 100 86 72 66 50 31 38 56 30 20 19 20 27 30 30 59 62 92 78 65 61 65 70 63 66 67 82 85 84 100 100 98 78 42 47 99 91 98 62 74 74 67 81
100 100 88 99 100 100 100 82 61 48 46 59 43 37 34 26 28 95 92 74 70 74 63 62 63 51 76 48 66 100 64 82 80 100 100 96 99 98 91 72 61 44 34 45 67
100 100 98 84 56 71 67 71 60 58 59 59 72 70 46 41 42 71 70 83 63 70 64 58 69 53 75 66 59 99 84 76 97 100 100 100 100 97 64 57 54 37 39 43 41
100 100 100 95 60 52 59 65 62 48 67 100 96 81 67 46 66 59 48 72 74 84 70 70 62 70 58 66 62 87 100 96 94 86 91 100 86 63 55 58 50 52 63 58 45
100 100 100 100 100 99 78 67 91 80 56 44 79 94 100 100 98 81 75 94 100 89 81 63 68 57 49 52 61 92 100 100 98 92 100 93 88 70 76 76 76 75 68 58 59
100 100 98 97 100 100 86 81 94 77 90 64 49 41 82 100 94 100 100 100 100 91 76 60 65 55 59 61 56 52 80 100 100 100 96 92 94 78 79 96 89 79 72 66 59
98 87 97 80 87 74 54 59 92 96 76 78 69 59 62 65 63 100 100 100 100 100 87 70 82 97 100 93 86 59 85 100 100 100 100 100 100 100 100 100 99 94 86 70 61
96 100 100 83 82 84 58 51 65 67 61 79 76 68 62 56 60 85 100 100 100 100 100 95 92 100 100 100 100 96 100 100 93 80 85 100 88 98 97 86 86 85 82 76 65
100 85 69 99 99 100 95 59 55 52 70 73 70 66 58 73 65 62 68 98 94 90 100 86 97 100 100 100 100 100 100 100 100 98 77 59 67 74 82 79 76 80 79 69 60
67 77 69 70 66 79 87 75 66 52 68 70 70 72 85 92 85 65 60 71 79 76 78 80 78 100 100 100 100 100 100 100 100 100 100 89 80 78 65 57 61 58 57 54 48
74 81 64 66 70 63 65 84 97 99 66 71 99 86 90 79 100 92 60 68 79 70 60 63 59 72 90 87 100 100 100 100 100 93 88 76 88 94 75 65 53 47 52 44 36
66 92 98 75 80 85 91 100 100 98 100 69 97 82 77 100 100 100 100 100 82 68 47 37 43 40 69 81 84 100 98 98 90 87 94 87 89 84 66 62 50 46 43 38 32
63 72 100 100 73 99 81 99 96 100 96 87 96 100 100 100 100 100 98 100 85 62 37 31 32 34 45 73 80 87 90 93 91 85 88 95 84 75 79 48 43 42 37 31 30
92 99 97 96 90 72 92 98 92 93 73 80 99 100 100 100 100 99 92 86 90 68 51 43 38 33 36 43 82 83 87 84 92 93 85 98 93 82 63 45 37 35 31 28 26
100 100 100 100 100 100 100 93 100 100 86 70 94 70 100 100 100 100 99 95 99 98 90 66 47 44 50 68 68 93 94 94 98 98 97 72 60 64 52 46 37 37 31 28 26
100 100 100 100 100 100 100 100 100 96 98 98 92 97 99 100 100 100 100 100 100 100 95 69 76 90 100 83 77 95 82 79 90 89 77 59 48 43 42 34 32 40 35 36 31
92 97 93 100 100 100 100 100 100 99 88 93 89 91 100 100 100 100 100 100 100 100 100 100 90 84 98 100 59 76 82 77 70 64 57 52 48 39 32 29 33 41 34 32 32
51 54 54 66 84 100 100 80 99 100 100 100 95 70 100 100 100 100 100 100 100 100 100 98 96 100 100 100 100 90 64 63 53 44 48 47 50 48 27 28 34 35 38 34 37
14 21 22 28 50 60 45 46 55 67 100 100 100 100 96 100 100 100 100 100 100 100 100 100 100 96 100 100 97 88 97 92 58 66 60 86 88 51 40 43 50 45 46 43 43
9 9 10 12 18 20 19 22 38 57 79 98 98 97 100 100 100 100 100 100 100 100 100 100 100 100 100 100 100 100 95 89 82 99 85 94 87 62 46 52 71 56 50 55 45
4 5 6 7 7 8 11 16 20 27 33 56 84 98 100 100 100 100 100 100 100 100 100 100 98 100 100 100 100 100 100 95 100 89 92 89 75 60 53 61 60 60 51 50 40
4 4 4 4 5 6 8 10 12 18 23 32 41 66 88 85 91 100 100 100 100 100 100 100 100 100 100 100 100 100 100 100 100 95 96 85 67 49 51 58 59 58 50 42 42
3 3 3 4 5 7 10 13 14 17 20 27 33 37 54 76 90 76 89 100 100 100 100 100 98 100 100 100 100 100 100 100 100 100 91 85 61 55 62 90 79 65 68 52 48
3 4 4 5 7 6 8 10 12 16 16 19 21 30 36 44 59 79 100 100 100 100 100 100 100 100 100 100 100 100 100 100 100 81 100 87 71 62 64 79 78 62 70 54 53
4 5 5 6 7 8 9 15 18 22 16 16 20 25 25 26 33 38 46 58 76 100 100 100 100 100 100 100 100 100 100 100 100 96 81 86 71 61 85 89 72 70 70 57 46

GFSSW_250_rhum_150.txt.gz
RH
88 100 100 100 100 100 100 100 100 97 100 86 98 100 100 84 52 45 71 100 90 57 32 22 26 28 31 51 49 44 56 41 61 57 50 45 46 56 63 60 53 46 33 32 32
84 100 100 100 100 100 100 100 98 100 100 98 100 100 100 93 61 49 46 52 59 47 28 22 26 38 42 44 43 46 50 38 46 58 53 43 37 51 77 60 65 65 51 38 29
77 99 94 92 100 100 100 100 89 100 100 100 100 100 100 98 74 58 34 39 34 31 35 44 39 40 38 40 35 41 47 36 46 60 58 39 38 42 72 76 81 88 73 54 38
71 98 100 95 85 95 98 100 100 100 100 100 100 99 100 100 89 77 43 34 41 43 31 34 31 29 30 32 40 59 52 34 33 67 57 56 49 40 52 68 100 88 62 51 48
78 86 94 91 79 85 100 100 99 100 100 100 100 96 100 98 82 70 56 58 59 54 43 36 31 38 25 30 35 44 54 33 32 47 54 53 48 44 42 66 100 93 70 65 65
51 100 100 99 76 85 100 100 100 100 100 100 100 100 100 97 88 77 68 53 40 31 27 22 22 26 50 42 45 49 44 47 46 47 59 64 48 46 41 53 78 88 85 80 94
43 89 100 100 90 96 100 100 92 100 100 100 100 100 100 94 98 100 88 71 60 48 49 34 24 28 85 71 98 89 79 64 76 77 74 58 43 43 52 58 78 92 100 100 100
51 94 100 100 96 88 97 100 100 100 100 100 100 100 100 100 100 100 100 94 80 62 56 45 49 28 44 88 100 100 100 100 92 80 87 72 67 77 80 97 100 100 100 100 100
64 66 89 100 100 100 100 100 100 100 98 94 100 96 100 100 100 100 100 100 80 63 63 78 56 64 44 35 44 58 100 100 100 100 96 100 100 98 100 100 100 100 100 100 100
62 74 59 77 100 97 100 100 100 100 100 100 84 100 100 100 93 89 100 100 95 80 61 57 76 66 47 65 55 52 56 86 97 100 98 100 100 67 83 98 100 100 100 100 100
55 54 72 71 74 85 60 100 100 100 100 100 100 96 100 100 100 85 87 100 100 99 79 68 72 72 58 58 79 51 41 43 50 83 96 100 93 100 84 46 57 53 58 84 100
64 54 52 68 91 76 80 68 54 60 90 92 90 81 72 80 81 91 82 87 99 100 91 100 89 57 53 64 66 57 42 39 40 59 65 84 89 79 68 83 95 96 95 94 96
84 70 68 82 90 90 76 77 71 55 50 62 52 53 65 57 61 73 76 92 100 99 89 78 93 78 63 48 59 54 54 51 75 80 63 59 65 70 55 45 41 59 71 76 74
89 85 82 98 98 94 87 95 93 75 63 56 83 53 59 51 46 76 77 75 85 97 98 79 95 67 70 59 58 51 59 68 71 55 54 52 44 40 47 43 34 32 36 36 37
83 88 78 96 100 100 100 100 100 100 88 97 88 93 96 95 80 75 80 68 95 100 100 87 99 96 91 94 71 58 57 60 74 60 58 53 44 31 35 30 34 41 48 39 39
89 84 99 95 99 100 100 100 100 100 95 84 100 100 100 100 100 93 94 82 72 94 100 100 100 100 87 65 66 67 69 59 54 59 57 62 78 40 39 37 37 40 38 47 52
100 100 97 100 100 100 100 100 100 100 99 99 99 94 100 100 100 100 100 96 90 84 100 100 100 99 97 86 75 97 79 59 63 57 80 76 79 63 68 47 43 38 39 44 47
100 100 98 91 100 100 100 100 100 100 100 100 100 97 92 100 100 100 100 100 100 94 100 100 100 100 100 100 100 100 100 88 76 61 61 100 73 78 90 84 56 52 39 41 43
100 100 100 100 94 99 100 100 100 100 98 88 91 76 73 96 100 100 100 100 100 100 100 100 100 100 100 100 100 100 93 100 86 76 64 98 100 87 94 83 76 66 53 51 75
82 90 100 99 84 69 81 83 97 99 85 70 69 75 81 98 100 100 92 85 100 100 100 100 100 100 100 100 100 100 100 100 100 100 98 100 100 100 89 99 88 66 75 84 89
82 68 74 90 70 80 64 58 66 75 86 74 92 81 93 94 99 100 100 68 85 100 100 100 100 100 100 100 100 100 100 100 100 100 97 100 100 100 92 97 87 91 93 100 78
99 77 84 89 86 69 66 93 75 75 83 74 100 84 99 100 100 99 91 88 69 74 99 100 100 100 100 100 100 100 99 100 97 100 100 99 92 100 100 100 94 100 99 99 91
88 54 58 72 59 58 65 62 66 78 100 96 93 96 89 98 92 99 96 99 100 100 100 100 100 100 100 100 100 100 100 100 100 100 100 85 99 100 100 100 99 100 100 96 93
24 17 17 21 24 25 27 27 41 66 58 54 50 66 66 63 78 80 74 93 100 99 100 100 100 100 87 98 100 100 100 100 100 100 100 90 100 100 100 100 100 100 100 100 96
7 5 8 7 8 8 8 8 10 10 14 16 14 15 18 26 35 45 58 61 71 69 94 100 97 100 100 100 100 100 100 100 100 100 100 100 100 100 100 100 100 100 100 94 80
4 4 5 6 6 5 5 5 6 7 9 10 9 12 12 13 15 20 24 27 38 50 67 88 100 93 92 100 100 100 100 100 100 100 100 100 100 100 100 100 100 94 85 78 92
4 5 4 5 5 4 4 4 5 8 8 8 8 10 9 8 11 13 14 17 20 25 31 35 30 38 47 67 94 82 100 92 100 100 100 99 98 97 96 95 96 94 85 90 66